This is the latest recevied weather packets stored in our database for station/object BM1CCR-13. If no packets are shown the sender has not sent any weather packets the latest 10 day(s).
| Time | Temp. | Humidity | Pressure | Rain* | Wind** | Luminosity | Snow |
|---|---|---|---|---|---|---|---|
| 1787973146 | 86° F | 83% | 732.6 mmHg | 0 in | - | - | - |
| 1787972546 | 89° F | 78% | 732.5 mmHg | 0 in | - | - | - |
| 1787971346 | 86° F | 80% | 732.5 mmHg | 0 in | - | - | - |
| 1787970745 | 87° F | 77% | 732.5 mmHg | 0 in | - | - | - |
| 1787970146 | 89° F | 75% | 732.5 mmHg | 0 in | - | - | - |
| 1787969545 | 89° F | 74% | 732.5 mmHg | 0 in | - | - | - |
| 1787968945 | 89° F | 73% | 732.4 mmHg | 0 in | - | - | - |
| 1787968345 | 91° F | 74% | 732.6 mmHg | 0 in | - | - | - |
| 1787967745 | 89° F | 73% | 732.6 mmHg | 0 in | - | - | - |
| 1787967145 | 89° F | 77% | 732.6 mmHg | 0 in | - | - | - |
| 1787966545 | 87° F | 75% | 732.6 mmHg | 0 in | - | - | - |
| 1787965945 | 91° F | 72% | 732.6 mmHg | 0 in | - | - | - |
| 1787965345 | 93° F | 71% | 732.6 mmHg | 0 in | - | - | - |
| 1787964744 | 89° F | 71% | 732.7 mmHg | 0 in | - | - | - |
| 1787964144 | 89° F | 73% | 732.7 mmHg | 0 in | - | - | - |
| 1787963543 | 91° F | 74% | 732.7 mmHg | 0 in | - | - | - |
| 1787962942 | 91° F | 74% | 732.5 mmHg | 0 in | - | - | - |
| 1787962342 | 89° F | 75% | 732.6 mmHg | 0 in | - | - | - |
| 1787961742 | 89° F | 75% | 732.6 mmHg | 0 in | - | - | - |
| 1787961142 | 87° F | 77% | 732.6 mmHg | 0 in | - | - | - |
| 1787960542 | 87° F | 79% | 732.4 mmHg | 0 in | - | - | - |
| 1787959942 | 87° F | 79% | 732.4 mmHg | 0 in | - | - | - |
| 1787959341 | 86° F | 80% | 732.4 mmHg | 0 in | - | - | - |
| 1787958741 | 86° F | 81% | 732.2 mmHg | 0 in | - | - | - |
| 1787958141 | 86° F | 82% | 732.1 mmHg | 0 in | - | - | - |
* Rain latest hour (hover to see other rain measurements)
** Current wind speed in m/s (hover to see current wind gust speed)